Tracking 34142 objects as of 18-May-2026
HD Live streaming from Space Station
objects crossing your sky now

CARTOSAT 2D

Track CARTOSAT 2D now!
10-day predictions


NORAD ID: 41948
Int'l Code: 2017-008A
Perigee: 512.3 km
Apogee: 518.3 km
Inclination: 97.4 °
Period: 94.8 minutes
Semi major axis: 6886 km
RCS: Unknown
Launch date: February 15, 2017
Source: India (IND)
Launch site: SRIHARIKOTA (SRI)
Your satellite tracking list
Your tracking list is empty




NASA's NSSDC Master Catalog

Two Line Element Set (TLE):
1 41948U 17008A   26137.86163428  .00001081  00000-0  54490-4 0  9995
2 41948  97.4126 197.7285 0004377   3.8305 356.2962 15.19241581512970
Source of the keplerian elements: AFSPC